Location: T�bingen+AIT
(48.5342°N, 9.0700°E)
Time: 02:56:47
(UTC+01:00)

USA 229 DEB - Pass Details

Date: 14 September 2017
Orbit: 1044 x 1168 km, 63.4° (Epoch: 08 November)

Event Time Altitude Azimuth Distance (km) Brightness Sun altitude
Rises 21:53:03 0° 317° (NW) 3,938 8.0 -21.8°
Reaches altitude 10° 21:55:44 10° 314° (NW) 2,995 7.1 -22.1°
Maximum altitude 22:02:43 59° 237° (WSW) 1,303 4.2 -23.1°
Enters shadow 22:06:17 31° 172° (S) 1,908 4.6 -23.6°
